Weather History for KGAO - February, 2013

Change the Weather History Date:

Tuesday, February 5, 2013

  Actual Average (KAXO) Record (KAXO)
Temperature  
Mean Temperature 58 °F -  
Max Temperature 69 °F 58 °F 71 °F (2008)
Min Temperature 46 °F 55 °F 46 °F (2000)
Degree Days  
Heating Degree Days 8    
Growing Degree Days 8 (Base 50)    
Moisture  
Dew Point 55 °F    
Average Humidity 96    
Maximum Humidity 100    
Minimum Humidity 78    
Precipitation  
Precipitation 0.32 in - - ()
Sea Level Pressure  
Sea Level Pressure 29.98 in    
Wind  
Wind Speed 3 mph (NNE)    
Max Wind Speed 8 mph    
Max Gust Speed -    
Visibility 6 miles    
Events Fog    
Averages and records for this station are not official NWS values.
T = Trace of Precipitation, MM = Missing Value Source: NWS Daily Summary

Daily Weather History Graph

Daily Weather History Graph

Search for Another Location

Airport or City:

Trip Planner

Search our weather history database for the weather conditions in past years. The results will help you decide how hot, cold, wet, or windy it might be!

Date:

Astronomy

Feb. 05, 2013 Rise Set
Actual Time 6:47 AM CST 5:42 PM CST
Civil Twilight 6:23 AM CST 6:07 PM CST
Nautical Twilight 5:54 AM CST 6:35 PM CST
Astronomical Twilight 5:26 AM CST 7:03 PM CST
Moon 2:21 AM CST (2/5) 1:08 PM CST (2/5)
Length of Visible Light 11h 44m
Length of Day
10h 55m
Waning Crescent, 26% of the Moon is Illuminated
Feb 5
Waning Crescent
Feb 10
New
Feb 17
First Quarter
Feb 25
Full
Mar 4
Last Quarter

Hourly Weather History & Observations

Time (CST) Temp. Dew Point Humidity Pressure Visibility Wind Dir Wind Speed Gust Speed Precip Events Conditions
12:15 AM 53.6 °F 53.6 °F 100% 29.93 in 10.0 mi NNE 3.5 mph - 0.01 in   Unknown
12:35 AM 53.6 °F 51.8 °F 94% 29.93 in 10.0 mi Calm Calm - 0.01 in   Unknown
12:55 AM 53.6 °F 51.8 °F 94% 29.93 in 10.0 mi Calm Calm - 0.02 in   Unknown
1:15 AM 53.6 °F 53.6 °F 100% 29.93 in 7.0 mi Calm Calm - 0.01 in   Unknown
1:35 AM 53.6 °F 53.6 °F 100% 29.93 in 5.0 mi North 3.5 mph - 0.01 in   Mist
1:55 AM 53.6 °F 53.6 °F 100% 29.93 in 5.0 mi NNW 3.5 mph - 0.01 in   Mist
2:15 AM 53.6 °F 53.6 °F 100% 29.92 in 5.0 mi North 6.9 mph - 0.01 in   Mist
2:35 AM 51.8 °F 51.8 °F 100% 29.92 in 7.0 mi NNW 3.5 mph - 0.02 in   Unknown
2:55 AM 51.8 °F 51.8 °F 100% 29.92 in 5.0 mi North 3.5 mph - 0.02 in   Mist
3:15 AM 51.8 °F 51.8 °F 100% 29.92 in 10.0 mi North 8.1 mph - 0.01 in   Unknown
3:35 AM 51.8 °F 51.8 °F 100% 29.92 in 5.0 mi NNW 5.8 mph - 0.02 in   Mist
3:55 AM 51.8 °F 51.8 °F 100% 29.93 in 3.0 mi Calm Calm - 0.03 in   Mist
4:15 AM 51.8 °F 51.8 °F 100% 29.94 in 1.8 mi North 3.5 mph - 0.01 in   Mist
4:35 AM 51.8 °F 51.8 °F 100% 29.93 in 0.8 mi North 5.8 mph - 0.04 in   Mist
4:55 AM 51.8 °F 51.8 °F 100% 29.94 in 1.2 mi North 5.8 mph - 0.05 in   Mist
5:15 AM 51.8 °F 51.8 °F 100% 29.94 in 4.0 mi North 6.9 mph - 0.01 in   Mist
5:35 AM 51.8 °F 51.8 °F 100% 29.95 in 4.0 mi North 3.5 mph - 0.03 in   Mist
5:55 AM 51.8 °F 51.8 °F 100% 29.96 in 5.0 mi NNE 3.5 mph - 0.04 in   Mist
6:15 AM 51.8 °F 51.8 °F 100% 29.96 in 5.0 mi NE 3.5 mph - 0.01 in   Mist
6:35 AM 51.8 °F 51.8 °F 100% 29.96 in 5.0 mi NNE 3.5 mph - 0.02 in   Mist
6:55 AM 51.8 °F 51.8 °F 100% 29.96 in 7.0 mi NNE 3.5 mph - 0.03 in   Unknown
7:15 AM 51.8 °F 51.8 °F 100% 29.97 in 5.0 mi North - - 0.01 in   Mist
7:35 AM 51.8 °F 51.8 °F 100% 29.98 in 4.0 mi NNE 6.9 mph - 0.02 in   Mist
7:55 AM 51.8 °F 51.8 °F 100% 29.99 in 0.5 mi NNE 6.9 mph - 0.03 in Fog Fog
8:15 AM 51.8 °F 51.8 °F 100% 29.99 in 0.2 mi North 6.9 mph - 0.01 in Fog Fog
8:35 AM 51.8 °F 51.8 °F 100% 30.00 in 0.2 mi NNE 4.6 mph - 0.02 in Fog Fog
8:55 AM 51.8 °F 51.8 °F 100% 30.00 in 0.2 mi NNE 8.1 mph - 0.02 in Fog Fog
9:15 AM 51.8 °F 51.8 °F 100% 30.01 in 0.2 mi NE 5.8 mph - 0.01 in Fog Fog
9:35 AM 51.8 °F 51.8 °F 100% 30.01 in 0.2 mi NE 5.8 mph - 0.02 in Fog Fog
9:55 AM 51.8 °F 51.8 °F 100% 30.02 in 0.8 mi NE 4.6 mph - 0.02 in   Mist
10:15 AM 51.8 °F 51.8 °F 100% 30.02 in 1.5 mi East 4.6 mph - 0.01 in   Mist
10:35 AM 53.6 °F 53.6 °F 100% 30.02 in 5.0 mi Calm Calm - 0.02 in   Mist
10:55 AM 53.6 °F 53.6 °F 100% 30.02 in 10.0 mi East 3.5 mph - 0.02 in   Unknown
11:15 AM 55.4 °F 55.4 °F 100% 30.01 in 10.0 mi NNE 6.9 mph - N/A   Unknown
11:35 AM 60.8 °F 59.0 °F 94% 30.01 in 7.0 mi North 4.6 mph - 0.01 in   Unknown
11:55 AM 60.8 °F 59.0 °F 94% 30.02 in 10.0 mi Calm Calm - 0.01 in   Unknown
12:15 PM 60.8 °F 60.8 °F 100% 30.02 in 10.0 mi Calm Calm - N/A   Unknown
12:35 PM 62.6 °F 60.8 °F 94% 30.01 in 10.0 mi SSE 4.6 mph - N/A   Unknown
12:55 PM 64.4 °F 62.6 °F 94% 29.99 in 10.0 mi Calm Calm - N/A   Unknown
1:15 PM 64.4 °F 62.6 °F 94% 29.98 in 10.0 mi Calm Calm - N/A   Unknown
1:35 PM 68.0 °F 62.6 °F 83% 29.98 in 10.0 mi Calm Calm - 0.01 in   Unknown
1:55 PM 69.8 °F 62.6 °F 78% 29.97 in 10.0 mi NNW 3.5 mph - 0.01 in   Unknown
2:15 PM 69.8 °F 62.6 °F 78% 29.97 in 10.0 mi Calm Calm - N/A   Unknown
2:35 PM 69.8 °F 62.6 °F 78% 29.97 in 10.0 mi Calm Calm - N/A   Unknown
2:55 PM 69.8 °F 62.6 °F 78% 29.97 in 10.0 mi North 5.8 mph - N/A   Unknown
3:15 PM 68.0 °F 62.6 °F 83% 29.97 in 10.0 mi NNE 4.6 mph - N/A   Unknown
3:35 PM 68.0 °F 62.6 °F 83% 29.97 in 10.0 mi NE 4.6 mph - N/A   Unknown
3:55 PM 68.0 °F 62.6 °F 83% 29.97 in 10.0 mi NNE 3.5 mph - 0.01 in   Unknown
4:15 PM 68.0 °F 62.6 °F 83% 29.97 in 10.0 mi East 3.5 mph - N/A   Unknown
4:35 PM 68.0 °F 62.6 °F 83% 29.97 in 10.0 mi ESE 3.5 mph - N/A   Unknown
4:55 PM 66.2 °F 62.6 °F 88% 29.97 in 10.0 mi Calm Calm - N/A   Unknown
5:15 PM 66.2 °F 62.6 °F 88% 29.97 in 10.0 mi Calm Calm - N/A   Unknown
5:35 PM 64.4 °F 60.8 °F 88% 29.98 in 10.0 mi Calm Calm - N/A   Unknown
5:55 PM 64.4 °F 60.8 °F 88% 29.98 in 10.0 mi Calm Calm - N/A   Unknown
6:15 PM 62.6 °F 60.8 °F 94% 29.99 in 10.0 mi Calm Calm - N/A   Unknown
6:35 PM 60.8 °F 59.0 °F 94% 29.99 in 10.0 mi Calm Calm - N/A   Unknown
6:55 PM 59.0 °F 59.0 °F 100% 29.99 in 10.0 mi Calm Calm - N/A   Unknown
7:15 PM 59.0 °F 59.0 °F 100% 30.00 in 10.0 mi Calm Calm - N/A   Unknown
7:35 PM 57.2 °F 55.4 °F 94% 30.01 in 0.8 mi Calm Calm - N/A   Mist
7:55 PM 55.4 °F 55.4 °F 100% 30.02 in 3.0 mi Calm Calm - N/A   Mist
8:15 PM 53.6 °F 53.6 °F 100% 30.02 in 0.5 mi Calm Calm - N/A Fog Fog
8:35 PM 53.6 °F 53.6 °F 100% 30.02 in 0.2 mi Calm Calm - N/A Fog Fog
8:55 PM 51.8 °F 51.8 °F 100% 30.03 in 0.2 mi Calm Calm - N/A Fog Fog
9:15 PM 50.0 °F 50.0 °F 100% 30.03 in 0.2 mi Calm Calm - N/A Fog Fog
9:35 PM 50.0 °F 50.0 °F 100% 30.03 in 0.2 mi Calm Calm - N/A Fog Fog
9:55 PM 46.4 °F 46.4 °F 100% 30.04 in 0.2 mi Calm Calm - N/A Fog Fog
10:15 PM 46.4 °F 46.4 °F 100% 30.04 in 0.2 mi Calm Calm - N/A Fog Fog
10:35 PM 46.4 °F 46.4 °F 100% 30.04 in 0.5 mi Calm Calm - N/A Fog Fog
10:55 PM 46.4 °F 46.4 °F 100% 30.04 in 0.5 mi Calm Calm - N/A Fog Fog
11:15 PM 46.4 °F 46.4 °F 100% 30.04 in 0.5 mi Calm Calm - N/A Fog Fog
11:35 PM 46.4 °F 46.4 °F 100% 30.03 in 0.5 mi Calm Calm - N/A Fog Fog
11:55 PM 46.4 °F 46.4 °F 100% 30.03 in 0.8 mi Calm Calm - N/A   Mist